TimeCDT,TemperatureF,Dew PointF,Humidity,Sea Level PressureIn,VisibilityMPH,Wind Direction,Wind SpeedMPH,Gust SpeedMPH,PrecipitationIn,Events,Conditions,WindDirDegrees,DateUTC
12:53 AM,37.9,26.1,62,30.14,10.0,SSW,5.8,-,N/A,,Clear,200,2012-10-08 05:53:00
1:53 AM,37.0,26.1,65,30.14,10.0,SSW,6.9,-,N/A,,Clear,200,2012-10-08 06:53:00
2:53 AM,33.1,26.1,75,30.13,10.0,South,6.9,-,N/A,,Clear,190,2012-10-08 07:53:00
3:53 AM,33.1,27.0,78,30.12,10.0,SSW,6.9,-,N/A,,Clear,200,2012-10-08 08:53:00
4:53 AM,35.1,28.0,76,30.11,10.0,SSW,9.2,-,N/A,,Clear,200,2012-10-08 09:53:00
5:53 AM,33.1,27.0,78,30.12,10.0,SSW,6.9,-,N/A,,Clear,200,2012-10-08 10:53:00
6:53 AM,35.1,28.0,76,30.12,10.0,SSW,9.2,-,N/A,,Clear,200,2012-10-08 11:53:00
7:53 AM,37.0,28.9,73,30.11,6.0,SSW,11.5,-,N/A,,Haze,200,2012-10-08 12:53:00
8:53 AM,45.0,30.9,58,30.11,10.0,SSW,15.0,-,N/A,,Mostly Cloudy,210,2012-10-08 13:53:00
9:53 AM,50.0,30.9,48,30.11,10.0,SSW,16.1,21.9,N/A,,Scattered Clouds,210,2012-10-08 14:53:00
10:53 AM,55.9,30.9,39,30.10,10.0,SSW,20.7,25.3,N/A,,Partly Cloudy,200,2012-10-08 15:53:00
11:53 AM,59.0,30.9,35,30.07,10.0,SSW,20.7,25.3,N/A,,Clear,200,2012-10-08 16:53:00
12:53 PM,61.0,30.9,32,30.05,9.0,SSW,20.7,29.9,N/A,,Clear,200,2012-10-08 17:53:00
1:53 PM,63.0,30.9,30,30.02,10.0,SSW,18.4,28.8,N/A,,Clear,210,2012-10-08 18:53:00
2:53 PM,64.0,30.9,29,29.99,10.0,SW,21.9,27.6,N/A,,Clear,220,2012-10-08 19:53:00
3:53 PM,63.0,30.9,30,29.97,10.0,South,17.3,28.8,N/A,,Clear,190,2012-10-08 20:53:00
4:53 PM,63.0,32.0,31,29.96,10.0,South,23.0,29.9,N/A,,Partly Cloudy,190,2012-10-08 21:53:00
5:53 PM,61.0,33.1,35,29.95,10.0,SSW,18.4,-,N/A,,Scattered Clouds,200,2012-10-08 22:53:00
6:53 PM,57.0,33.1,40,29.96,10.0,South,12.7,-,N/A,,Scattered Clouds,180,2012-10-08 23:53:00
7:53 PM,53.1,33.1,47,29.96,10.0,South,10.4,-,N/A,,Scattered Clouds,170,2012-10-09 00:53:00
8:53 PM,53.1,34.0,48,29.96,10.0,South,15.0,-,N/A,,Scattered Clouds,180,2012-10-09 01:53:00
9:53 PM,53.1,34.0,48,29.96,10.0,South,17.3,-,N/A,,Scattered Clouds,190,2012-10-09 02:53:00
10:53 PM,53.1,35.1,50,29.95,10.0,SSW,16.1,25.3,N/A,,Scattered Clouds,200,2012-10-09 03:53:00
11:53 PM,52.0,35.1,53,29.94,10.0,SSW,18.4,25.3,N/A,,Clear,200,2012-10-09 04:53:00